Weather Roundup
Issued by NWS

Home | Current Version | Previous Version | Graphics & Text | Print | Product List | Glossary Off
Versions: 1 2 3 4 5 6 7 8 9 10 11 12 13 14 15 16 17 18 19 20 21 22 23 24 25 26 27 28 29 30 31 32 33 34 35 36 37 38 39 40 41 42 43 44 45 46 47 48 49 50

130
NZUS93 KARX 110410
HRRWXR

CURRENT HOURLY OBSERVATIONS ACROSS
MUCH OF THE UPPER MISSISSIPPI VALLEY
NATIONAL WEATHER SERVICE LA CROSSE WI
1000 PM CST WED FEB 10 2016


...SOUTHEAST MINNESOTA...


CITY           SKY/WX    TMP DP  RH WIND       PRES   REMARKS
ROCHESTER      CLOUDY     6  -3  66 N7        30.18S WCI  -6
ROCHESTER/MAYO CLOUDY     8  -2  65 N3        30.21S
WINONA         CLOUDY    10   1  67 NW3       30.25R
AUSTIN         CLOUDY     7  -2  66 N6        30.20R WCI  -3
ALBERT LEA     CLOUDY     7   0  72 CALM      30.20S
DODGE CENTER   CLOUDY     7  -2  66 N5        30.19R WCI  -2
PRESTON        CLOUDY     5  -3  68 N3        30.19R
OWATONNA       CLOUDY     9  -2  61 NE5       30.22R WCI   0
FARIBAULT        N/A      9   0  66 CALM      30.23R
$$

...ELSEWHERE IN MINNESOTA...


CITY           SKY/WX    TMP DP  RH WIND       PRES   REMARKS
MINNEAPOLIS    CLOUDY    11  -2  56 N5        30.26R WCI   3
INTNL FALLS    PTCLDY   -14 -19  79 CALM      30.23R
DULUTH         CLEAR     -1 -11  62 N12       30.17R WCI -18
RED WING       CLOUDY     9  -2  61 N3        30.24S
REDWOOD FALLS  CLOUDY    13   4  67 CALM      30.25R
MANKATO        CLOUDY    10   0  61 N8        30.23R WCI  -1
WORTHINGTON    CLOUDY    10   3  72 NE10      30.20R WCI  -3
FAIRMONT       CLOUDY     9   1  72 CALM      30.20R
$$

...SOUTHWEST WISCONSIN...


CITY           SKY/WX    TMP DP  RH WIND       PRES   REMARKS
LA CROSSE      CLOUDY     6  -3  66 N3        30.24R
PRAIRIE DU CHI CLOUDY    12  -2  54 NW7       30.23R WCI   1
BOSCOBEL       CLOUDY     8  -2  63 CALM      30.23R
LONE ROCK      CLOUDY     3  -3  76 W3        30.21R
PLATTEVILLE    CLOUDY    10   0  62 N6        30.18R WCI   1
FORT MC COY    CLOUDY     0  -5  80 CALM      30.22R
CAMP DOUGLAS   MOCLDY     0  -4  85 NW6       30.18R WCI -12
VIROQUA        FAIR       2  -5  72 NW3       30.15S
WIS DELLS      CLOUDY     5  -4  65 W3        30.16S
$$

...ELSEWHERE IN WISCONSIN...


CITY           SKY/WX    TMP DP  RH WIND       PRES   REMARKS
MILWAUKEE      PTCLDY    10  -2  58 NW8       30.15R WCI  -2
MADISON        PTCLDY     7  -3  64 NW5       30.16R WCI  -2
GREEN BAY      CLEAR      5  -6  60 N8        30.16R WCI  -8
EAU CLAIRE     CLOUDY     6  -5  60 NW7       30.21R WCI  -6
BLACK RVR FLS  FAIR       7  -4  61 CALM      30.21R
MEDFORD        CLEAR      0  -5  77 N5        30.12S WCI -10
WAUSAU         PTCLDY     6  -4  63 N8        30.13R WCI  -7
WIS RAPIDS     CLOUDY     4  -6  63 NW5       30.17R WCI  -5
MARSHFIELD     CLOUDY     3  -6  66 N9        30.13R WCI -12
RICE LAKE      CLOUDY     5  -4  66 CALM      30.21S
$$

...NORTHEAST IOWA...


CITY           SKY/WX    TMP DP  RH WIND       PRES   REMARKS
WATERLOO       CLOUDY     8  -1  66 N9        30.20R WCI  -5
DUBUQUE        CLOUDY    11   1  64 N8        30.17R WCI  -1
DECORAH        CLOUDY     7  -2  66 N7        30.18R WCI  -5
MASON CITY     CLOUDY     4  -2  76 N6        30.21R WCI  -7
CHARLES CITY   CLOUDY     5  -2  72 N8        30.20S WCI  -8
OELWEIN        CLOUDY     7   0  72 N6        30.19S WCI  -3
$$

...ELSEWHERE IN IOWA...


CITY           SKY/WX    TMP DP  RH WIND       PRES   REMARKS
DES MOINES     CLOUDY    18  10  71 NE6       30.18R WCI  10
IOWA CITY      CLOUDY    15   3  59 N9        30.21R WCI   3
FORT DODGE     CLOUDY    12   3  67 NE6       30.20S WCI   3
MARSHALLTOWN   CLOUDY    13   3  64 N10       30.19R WCI   0
CEDAR RAPIDS   CLOUDY    13   3  64 N12       30.18R WCI  -1
$$

...NORTHERN ILLINOIS...


CITY           SKY/WX    TMP DP  RH WIND       PRES   REMARKS
CHICAGO-OHARE  PTCLDY    11   1  64 NW5       30.16R WCI   3
CHICAGO-MIDWAY PTCLDY    13   0  56 NW10      30.17R WCI   0
MOLINE         PTCLDY    15   3  59 N6        30.19R WCI   6
ROCKFORD       MOCLDY    10   1  67 W3        30.20R
PEORIA         CLOUDY    16   7  67 CALM      30.18R
$$

NOTE: "FAIR" INDICATES FEW OR NO CLOUDS BELOW 12,000 FEET WITH NO
SIGNIFICANT WEATHER AND/OR OBSTRUCTIONS TO VISIBILITY. WIND
SPEEDS ARE IN MILES-PER-HOUR.




USA.gov is the U.S. government's official web portal to all federal, state and local government web resources and services.